Total_Precipitation_Accumulation
0.89 0.86 0.78 0.78 0.73 0.80 0.91 1.00 0.96 0.86 0.82 0.76 0.72 0.79 0.83 0.89 0.92 1.00 1.09 1.11 1.26 1.56 1.79 1.78 1.58 1.39 1.31 1.32 1.36 1.40 1.46 1.57 1.57 1.57 1.60 1.60 1.56 1.43 1.30 1.25 1.16 1.10 1.22
0.94 0.91 0.86 0.87 0.85 0.87 0.99 0.97 0.90 0.95 0.95 0.88 0.75 0.75 0.83 0.89 0.93 0.93 0.97 1.10 1.17 1.26 1.65 1.88 1.87 1.67 1.57 1.43 1.48 1.60 1.61 1.51 1.45 1.49 1.53 1.59 1.61 1.43 1.26 1.17 1.13 1.06 1.05
0.84 0.87 0.88 0.88 0.93 1.02 1.07 1.08 0.92 0.96 0.94 0.85 0.79 0.74 0.73 0.75 0.80 0.86 0.83 0.83 0.92 1.06 1.36 1.73 1.98 1.88 1.74 1.64 1.57 1.64 1.62 1.48 1.43 1.44 1.48 1.47 1.52 1.46 1.33 1.31 1.19 1.18 1.15
0.77 0.90 0.91 0.89 0.93 1.06 1.14 1.18 1.09 1.06 1.00 0.97 0.93 0.85 0.77 0.80 0.77 0.83 0.84 0.77 0.89 0.86 1.05 1.25 1.51 1.69 1.77 1.78 1.70 1.72 1.64 1.39 1.30 1.39 1.45 1.36 1.39 1.41 1.26 1.33 1.23 1.18 1.15
0.84 1.01 1.11 1.13 1.13 1.15 1.15 1.09 1.14 1.14 1.12 1.12 1.03 0.98 0.90 0.85 0.88 0.81 0.84 0.87 0.81 0.84 0.95 0.85 0.94 1.10 1.43 1.65 1.76 1.96 1.89 1.50 1.30 1.38 1.47 1.31 1.28 1.38 1.22 1.23 1.22 1.12 1.07
1.19 1.33 1.33 1.40 1.48 1.36 1.33 1.26 1.27 1.23 1.17 1.21 1.10 0.99 0.92 0.84 0.92 0.95 0.94 0.95 0.90 0.83 0.92 0.87 0.84 0.77 0.96 1.26 1.56 1.92 2.14 1.78 1.48 1.42 1.52 1.42 1.31 1.39 1.24 1.22 1.26 1.09 1.02
1.52 1.73 1.69 1.74 1.78 1.67 1.63 1.67 1.86 1.82 1.55 1.31 1.34 1.18 0.99 0.85 0.97 1.01 0.99 1.02 1.03 1.09 1.13 1.02 0.88 0.86 0.75 0.78 0.98 1.45 2.08 1.98 1.74 1.58 1.57 1.51 1.30 1.25 1.13 1.15 1.25 1.16 1.00
1.44 1.58 1.83 1.93 1.86 1.89 2.01 2.03 2.36 2.50 2.07 1.64 1.63 1.74 1.48 1.27 1.02 0.89 0.95 0.99 1.09 1.28 1.27 1.06 0.96 0.87 0.81 0.81 0.62 0.87 1.49 1.80 1.82 1.74 1.64 1.52 1.38 1.23 1.20 1.27 1.24 1.27 1.15
1.41 1.51 1.67 1.83 1.84 1.92 2.01 2.13 2.45 2.92 2.68 2.15 1.90 2.09 1.79 1.58 1.40 1.07 0.93 0.96 1.08 1.29 1.42 1.30 1.20 1.10 0.95 0.95 0.83 0.72 0.92 1.22 1.72 1.93 1.87 1.69 1.58 1.37 1.30 1.41 1.22 1.31 1.34
1.31 1.37 1.52 1.66 1.78 1.81 1.94 2.04 2.16 2.62 2.95 2.64 2.34 2.00 1.66 1.58 1.68 1.50 1.17 1.11 1.15 1.22 1.30 1.25 1.23 1.31 1.21 1.09 0.96 0.77 0.78 0.87 1.38 1.77 1.98 1.96 1.84 1.66 1.63 1.76 1.49 1.36 1.37
1.40 1.39 1.54 1.61 1.63 1.69 1.79 2.12 2.38 2.63 2.82 2.76 2.66 2.47 2.21 1.92 1.59 1.71 1.65 1.41 1.29 1.21 1.22 1.26 1.27 1.31 1.32 1.26 1.29 1.00 0.80 0.79 1.01 1.43 1.87 2.18 2.14 2.03 2.10 2.19 1.81 1.62 1.53
1.49 1.54 1.60 1.61 1.58 1.61 1.72 1.95 2.23 2.44 2.74 2.90 2.79 2.58 2.43 2.30 2.08 1.95 1.73 1.61 1.59 1.38 1.29 1.29 1.23 1.26 1.36 1.46 1.40 1.36 0.96 0.73 0.75 1.04 1.38 1.80 2.10 2.20 2.33 2.37 2.10 2.02 1.89
1.39 1.42 1.53 1.65 1.73 1.76 1.88 2.05 2.19 2.10 2.32 2.69 2.68 2.53 2.43 2.22 2.18 2.23 2.05 1.76 1.64 1.37 1.27 1.22 1.18 1.29 1.29 1.31 1.50 1.67 1.18 0.85 0.69 0.84 0.95 1.17 1.50 1.85 2.23 2.48 2.43 2.33 2.28
1.35 1.29 1.34 1.45 1.59 1.75 1.80 1.85 1.86 1.83 1.96 2.21 2.29 2.46 2.56 2.32 2.16 2.04 1.95 1.99 1.77 1.50 1.34 1.22 1.12 1.15 1.20 1.25 1.44 1.62 1.23 1.03 0.76 0.70 0.74 0.87 1.01 1.18 1.49 1.91 2.29 2.35 2.43
1.12 1.04 1.05 1.09 1.17 1.26 1.34 1.49 1.58 1.70 1.74 1.86 2.02 2.14 2.28 2.37 2.27 2.05 1.96 1.94 1.90 1.71 1.51 1.40 1.24 1.06 1.18 1.31 1.49 1.32 1.19 1.18 1.00 0.81 0.73 0.76 0.83 0.88 1.01 1.11 1.31 1.59 1.93
1.03 0.96 0.93 0.88 0.85 0.84 0.89 1.07 1.27 1.40 1.49 1.65 1.83 1.96 1.97 2.03 2.22 2.17 1.98 1.96 1.88 1.75 1.62 1.44 1.32 1.19 1.38 1.30 1.43 1.27 1.27 1.33 1.05 0.92 0.84 0.79 0.77 0.70 0.68 0.70 0.70 0.79 1.00
1.01 1.00 0.92 0.85 0.92 0.92 0.89 0.96 1.02 1.08 1.15 1.29 1.44 1.57 1.72 1.97 2.26 2.27 2.21 2.08 1.96 1.82 1.59 1.44 1.23 1.15 1.47 1.58 1.48 1.35 1.31 1.28 1.05 0.97 0.89 0.82 0.78 0.71 0.65 0.58 0.57 0.58 0.64
0.69 0.78 0.87 0.82 0.80 0.83 0.86 0.93 0.95 0.99 1.01 1.10 1.20 1.33 1.51 1.79 2.13 2.34 2.41 2.29 2.13 1.98 1.85 1.69 1.36 1.11 1.23 1.58 1.72 1.66 1.43 1.26 1.13 1.06 0.94 0.83 0.78 0.71 0.65 0.62 0.60 0.58 0.57
0.52 0.57 0.66 0.67 0.76 0.83 0.86 0.88 0.90 0.94 0.96 1.05 1.19 1.25 1.30 1.50 1.69 1.90 2.08 2.20 2.18 2.15 2.13 1.89 1.58 1.32 1.25 1.39 1.64 1.66 1.57 1.52 1.30 1.23 1.23 1.10 0.97 0.87 0.76 0.67 0.65 0.62 0.57
0.55 0.61 0.73 0.78 0.73 0.71 0.76 0.86 0.90 0.86 0.85 0.89 0.97 1.07 1.17 1.21 1.37 1.51 1.61 1.80 2.01 2.24 2.32 2.18 1.91 1.59 1.47 1.36 1.46 1.62 1.68 1.62 1.53 1.34 1.30 1.20 1.19 1.12 1.00 0.85 0.71 0.65 0.65
0.61 0.63 0.73 0.84 0.90 0.85 0.82 0.91 0.88 0.86 0.85 0.84 0.89 0.89 0.96 0.98 1.04 1.22 1.27 1.49 1.81 2.07 2.19 2.26 2.14 1.84 1.57 1.40 1.19 1.29 1.54 1.76 1.75 1.65 1.65 1.42 1.29 1.16 1.07 1.03 0.96 0.83 0.74
0.51 0.50 0.54 0.61 0.70 0.74 0.94 0.90 0.75 0.71 0.77 0.83 0.88 0.87 0.89 0.84 0.82 0.88 1.01 1.14 1.44 1.65 1.79 1.87 1.89 1.74 1.53 1.39 1.34 1.31 1.37 1.51 1.57 1.44 1.47 1.56 1.50 1.36 1.26 1.14 1.16 1.19 1.11
0.42 0.40 0.39 0.39 0.45 0.60 0.69 0.54 0.53 0.58 0.72 0.84 0.91 0.94 0.90 0.84 0.89 0.90 0.91 0.93 1.00 1.17 1.39 1.59 1.61 1.51 1.57 1.48 1.40 1.30 1.31 1.33 1.32 1.41 1.47 1.52 1.52 1.42 1.35 1.34 1.37 1.28 1.22
0.33 0.31 0.38 0.45 0.47 0.49 0.56 0.46 0.45 0.55 0.75 0.88 0.88 0.84 0.91 0.92 0.94 1.00 0.94 1.01 0.96 0.94 1.03 1.08 1.22 1.42 1.57 1.73 1.70 1.59 1.60 1.54 1.45 1.53 1.55 1.49 1.39 1.32 1.23 1.21 1.28 1.16 1.08
0.37 0.39 0.50 0.57 0.51 0.44 0.49 0.50 0.55 0.69 0.82 0.90 0.87 0.86 0.94 0.98 1.11 1.16 1.06 1.11 1.08 1.04 1.01 1.12 1.21 1.32 1.40 1.52 1.66 1.70 1.66 1.62 1.48 1.41 1.42 1.36 1.26 1.28 1.27 1.15 1.09 1.08 0.99
0.33 0.40 0.42 0.40 0.41 0.47 0.54 0.52 0.64 0.82 0.94 1.04 1.00 0.99 1.18 1.13 1.11 1.05 1.03 1.18 1.15 1.00 0.93 0.97 1.03 1.11 1.15 1.24 1.36 1.40 1.52 1.59 1.50 1.36 1.19 1.17 1.18 1.22 1.26 1.16 1.04 0.97 0.93